Location: Campillo
(40.8621°N, 4.2488°W)
Time: 17:23:08
(UTC+00:00)

Cosmos 2084 - Pass Details

Date: 03 October 2021
Orbit: 528 x 653 km, 62.8° (Epoch: 28 October)

Event Time Altitude Azimuth Distance (km) Brightness Sun altitude
Exits shadow 04:16:37 20° 345° (NNW) 1,292 5.2 -23.1°
Drops below altitude 10° 04:18:39 10° 11° (N) 1,826 6.3 -22.8°
Sets 04:21:15 0° 26° (NNE) 2,744 7.5 -22.3°
